Weather History for Monroe, MI

Change the Weather History Date:

Tuesday, January 29, 2013

  Actual Average Record
Temperature  
Mean Temperature 48 °F -  
Max Temperature 60 °F 32 °F 60 °F (2013)
Min Temperature 37 °F 16 °F -9 °F (1977)
Degree Days  
Heating Degree Days 16    
Moisture  
Dew Point 48 °F    
Average Humidity 95    
Maximum Humidity 100    
Minimum Humidity 82    
Precipitation  
Precipitation 0.00 in - - ()
Sea Level Pressure  
Sea Level Pressure 29.78 in    
Wind  
Wind Speed 7 mph (South)    
Max Wind Speed 15 mph    
Max Gust Speed 29 mph    
Visibility 4 miles    
Events Fog , Rain    
Averages and records for this station are not official NWS values.
T = Trace of Precipitation, MM = Missing Value Source: NWS Daily Summary

Daily Weather History Graph

Daily Weather History Graph

Search for Another Location

Airport:

Trip Planner

Search our weather history database for the weather conditions in past years. The results will help you decide how hot, cold, wet, or windy it might be!

Date:

Astronomy

Jan. 29, 2013 Rise Set
Actual Time 7:49 AM EST 5:45 PM EST
Civil Twilight 7:19 AM EST 6:15 PM EST
Nautical Twilight 6:45 AM EST 6:48 PM EST
Astronomical Twilight 6:12 AM EST 7:21 PM EST
Moon 8:44 PM EST (1/29) 8:42 AM EST (1/29)
Length of Visible Light 10h 55m
Length of Day
9h 56m
Waning Gibbous, 94% of the Moon is Illuminated
Jan 29
Waning Gibbous
Feb 3
Last Quarter
Feb 10
New
Feb 17
First Quarter
Feb 25
Full

Hourly Weather History & Observations

Time (EST) Temp. Windchill Dew Point Humidity Pressure Visibility Wind Dir Wind Speed Gust Speed Precip Events Conditions
12:12 AM 39.2 °F - 39.2 °F 100% 30.01 in 1.5 mi Calm Calm - N/A   Overcast
12:32 AM 39.2 °F - 39.2 °F 100% 30.01 in 0.8 mi Calm Calm - N/A   Overcast
12:57 AM 37.4 °F - 37.4 °F 100% 30.00 in 1.5 mi Calm Calm - N/A   Overcast
1:12 AM 37.4 °F 33.8 °F 37.4 °F 100% 29.98 in 2.0 mi East 4.6 mph - N/A   Overcast
1:32 AM 37.4 °F - 37.4 °F 100% 29.98 in 2.0 mi Calm Calm - N/A   Overcast
1:52 AM 37.4 °F 34.9 °F 37.4 °F 100% 29.98 in 1.8 mi East 3.5 mph - N/A   Overcast
2:12 AM 37.4 °F 33.8 °F 37.4 °F 100% 29.97 in 1.5 mi ESE 4.6 mph - N/A   Overcast
2:32 AM 37.4 °F 33.8 °F 37.4 °F 100% 29.97 in 1.0 mi ESE 4.6 mph - N/A   Overcast
2:52 AM 37.4 °F 34.9 °F 37.4 °F 100% 29.97 in 0.5 mi ESE 3.5 mph - N/A Fog Fog
3:12 AM 37.4 °F 31.4 °F 37.4 °F 100% 29.96 in 0.5 mi SE 8.1 mph - N/A Fog Fog
3:38 AM 37.4 °F - 37.4 °F 100% 29.96 in 0.5 mi Calm Calm - N/A Fog Fog
4:13 AM 37.4 °F 32.1 °F 37.4 °F 100% 29.94 in 0.8 mi ESE 6.9 mph - N/A   Overcast
4:33 AM 37.4 °F 31.4 °F 37.4 °F 100% 29.92 in 1.0 mi East 8.1 mph - N/A Rain Light Rain
4:58 AM 37.4 °F 31.4 °F 37.4 °F 100% 29.91 in 0.8 mi ESE 8.1 mph - N/A Rain Heavy Rain
5:13 AM 37.4 °F 34.9 °F 37.4 °F 100% 29.93 in 1.0 mi East 3.5 mph - N/A   Overcast
5:33 AM 37.4 °F 29.8 °F 37.4 °F 100% 29.90 in 0.5 mi ESE 11.5 mph - N/A   Overcast
5:53 AM 37.4 °F 30.3 °F 37.4 °F 100% 29.88 in 4.0 mi ESE 10.4 mph - N/A   Overcast
6:13 AM 37.4 °F 30.8 °F 37.4 °F 100% 29.87 in 1.8 mi ESE 9.2 mph - N/A Rain Light Rain
6:34 AM 39.2 °F 35.0 °F 39.2 °F 100% 29.85 in 1.0 mi SE 5.8 mph - N/A   Overcast
6:54 AM 41.0 °F 36.4 °F 41.0 °F 100% 29.83 in 0.5 mi SE 6.9 mph - N/A Fog Fog
7:14 AM 42.8 °F 38.0 °F 42.8 °F 100% 29.83 in 0.5 mi SSE 8.1 mph - N/A Fog Fog
7:34 AM 42.8 °F 37.5 °F 42.8 °F 100% 29.83 in 0.2 mi SSE 9.2 mph - N/A Fog Fog
7:54 AM 41.0 °F 35.8 °F 41.0 °F 100% 29.82 in 0.2 mi SSE 8.1 mph - N/A Fog Fog
8:14 AM 42.8 °F 39.3 °F 42.8 °F 100% 29.82 in 0.5 mi SSE 5.8 mph - N/A Fog Fog
8:34 AM 42.8 °F 41.1 °F 42.8 °F 100% 29.84 in 0.2 mi SW 3.5 mph - N/A Fog Fog
8:54 AM 42.8 °F 40.1 °F 42.8 °F 100% 29.82 in 0.5 mi South 4.6 mph - N/A Rain Light Rain
9:14 AM 46.4 °F 41.9 °F 46.4 °F 100% 29.82 in 1.0 mi South 9.2 mph - N/A Rain Rain
9:34 AM 50.0 °F - 48.2 °F 94% 29.80 in 1.5 mi SSW 9.2 mph - N/A Rain Rain
9:54 AM 51.8 °F - 51.8 °F 100% 29.80 in 2.5 mi SSW 10.4 mph - N/A   Overcast
10:15 AM 53.6 °F - 51.8 °F 94% 29.81 in 3.0 mi SSW 10.4 mph 16.1 mph N/A Rain Light Rain
10:35 AM 53.6 °F - 53.6 °F 100% 29.80 in 2.5 mi SSW 10.4 mph - N/A   Overcast
10:55 AM 53.6 °F - 53.6 °F 100% 29.80 in 2.0 mi SSW 13.8 mph - N/A   Overcast
11:15 AM 55.4 °F - 53.6 °F 94% 29.80 in 2.0 mi SSW 13.8 mph 17.3 mph N/A Rain Rain
11:35 AM 55.4 °F - 55.4 °F 100% 29.79 in 2.5 mi SSW 11.5 mph - N/A   Overcast
11:55 AM 55.4 °F - 55.4 °F 100% 29.80 in 2.5 mi SW 11.5 mph - N/A   Overcast
12:15 PM 55.4 °F - 55.4 °F 100% 29.79 in 2.0 mi SSW 12.7 mph 17.3 mph N/A Rain Light Rain
12:35 PM 57.2 °F - 55.4 °F 94% 29.77 in 3.0 mi SSW 10.4 mph - N/A   Overcast
12:56 PM 57.2 °F - 55.4 °F 94% 29.76 in 3.0 mi SSW 12.7 mph - N/A   Overcast
1:16 PM 57.2 °F - 55.4 °F 94% 29.76 in 3.0 mi SSW 13.8 mph - N/A   Overcast
1:31 PM 57.2 °F - 55.4 °F 94% 29.75 in 4.0 mi SW 15.0 mph 19.6 mph N/A   Overcast
1:51 PM 57.2 °F - 55.4 °F 94% 29.74 in 4.0 mi SW 11.5 mph 17.3 mph N/A Rain Rain
2:11 PM 57.2 °F - 55.4 °F 94% 29.74 in 4.0 mi SSW 11.5 mph 17.3 mph N/A   Overcast
2:31 PM 57.2 °F - 55.4 °F 94% 29.73 in 2.0 mi SSW 11.5 mph - N/A   Overcast
2:51 PM 57.2 °F - 55.4 °F 94% 29.73 in 5.0 mi SSW 12.7 mph 17.3 mph N/A   Overcast
3:11 PM 59.0 °F - 55.4 °F 88% 29.73 in 5.0 mi SSW 12.7 mph - N/A   Overcast
3:31 PM 59.0 °F - 55.4 °F 88% 29.72 in 5.0 mi SSW 12.7 mph 17.3 mph N/A Rain Rain
3:51 PM 57.2 °F - 55.4 °F 94% 29.72 in 4.0 mi SSW 12.7 mph - N/A Rain Light Rain
4:11 PM 57.2 °F - 55.4 °F 94% 29.71 in 3.0 mi SSW 9.2 mph - N/A Rain Light Rain
4:36 PM 57.2 °F - 55.4 °F 94% 29.71 in 4.0 mi SSW 10.4 mph - N/A   Overcast
4:52 PM 59.0 °F - 55.4 °F 88% 29.71 in 5.0 mi South 11.5 mph - N/A   Overcast
5:12 PM 59.0 °F - 55.4 °F 88% 29.71 in 5.0 mi SSW 11.5 mph 19.6 mph N/A   Overcast
5:32 PM 59.0 °F - 55.4 °F 88% 29.70 in 5.0 mi SSW 11.5 mph - N/A   Overcast
5:52 PM 59.0 °F - 55.4 °F 88% 29.70 in 7.0 mi SSW 13.8 mph 18.4 mph N/A   Overcast
6:12 PM 60.8 °F - 55.4 °F 82% 29.69 in 7.0 mi SSW 13.8 mph 28.8 mph N/A   Overcast
6:32 PM 59.0 °F - 55.4 °F 88% 29.69 in 7.0 mi SSW 13.8 mph 25.3 mph N/A   Overcast
6:52 PM 59.0 °F - 55.4 °F 88% 29.69 in 7.0 mi SSW 15.0 mph 18.4 mph N/A   Overcast
7:13 PM 59.0 °F - 55.4 °F 88% 29.68 in 7.0 mi South 15.0 mph 20.7 mph N/A Rain Rain
7:33 PM 59.0 °F - 55.4 °F 88% 29.67 in 7.0 mi South 11.5 mph 19.6 mph N/A   Overcast
7:53 PM 59.0 °F - 55.4 °F 88% 29.67 in 7.0 mi SSW 11.5 mph - N/A   Overcast
8:13 PM 57.2 °F - 55.4 °F 94% 29.67 in 7.0 mi SSW 8.1 mph - N/A   Overcast
8:33 PM 57.2 °F - 53.6 °F 88% 29.65 in 7.0 mi SSE 5.8 mph - N/A   Overcast
8:53 PM 55.4 °F - 53.6 °F 94% 29.64 in 7.0 mi SSE 8.1 mph - N/A   Overcast
9:13 PM 53.6 °F - 51.8 °F 94% 29.62 in 7.0 mi SE 4.6 mph - N/A   Overcast
9:33 PM 53.6 °F - 51.8 °F 94% 29.61 in 5.0 mi SSE 5.8 mph - N/A   Overcast
9:53 PM 53.6 °F - 51.8 °F 94% 29.59 in 5.0 mi SE 6.9 mph - N/A   Overcast
10:13 PM 53.6 °F - 51.8 °F 94% 29.57 in 5.0 mi SSE 6.9 mph - N/A   Overcast
10:33 PM 53.6 °F - 51.8 °F 94% 29.55 in 7.0 mi SSE 6.9 mph - N/A   Overcast
10:53 PM 55.4 °F - 51.8 °F 88% 29.53 in 7.0 mi South 8.1 mph - N/A   Overcast
11:14 PM 55.4 °F - 53.6 °F 94% 29.52 in 7.0 mi South 8.1 mph - N/A   Overcast
11:34 PM 55.4 °F - 51.8 °F 88% 29.50 in 10.0 mi SSE 9.2 mph - N/A   Overcast
11:54 PM 55.4 °F - 51.8 °F 88% 29.49 in 10.0 mi South 12.7 mph - N/A   Scattered Clouds